This is the latest recevied weather packets stored in our database for station/object SQ9PDE-13. If no packets are shown the sender has not sent any weather packets the latest 10 day(s).
| Time | Temp. | Humidity | Pressure | Rain* | Wind** | Luminosity | Snow |
|---|---|---|---|---|---|---|---|
| 1777699013 | 11.11° C | 70% | 1025.8 hPa | - | - | - | - |
| 1777698712 | 11.11° C | 70% | 1025.8 hPa | - | - | - | - |
| 1777698412 | 11.67° C | 68% | 1025.9 hPa | - | - | - | - |
| 1777698111 | 13.89° C | 66% | 1026.3 hPa | - | - | - | - |
| 1777697810 | 13.33° C | 72% | 1026.6 hPa | - | - | - | - |
| 1777697510 | 12.78° C | 78% | 1026.5 hPa | - | - | - | - |
| 1777697209 | 12.22° C | 79% | 1026.4 hPa | - | - | - | - |
| 1777696909 | 11.11° C | 82% | 1026.3 hPa | - | - | - | - |
| 1777696608 | 10° C | 96% | 1026.5 hPa | - | - | - | - |
| 1777696308 | 9.44° C | 98% | 1026.6 hPa | - | - | - | - |
| 1777696007 | 9.44° C | 100% | 1026.5 hPa | - | - | - | - |
| 1777695707 | 8.33° C | 100% | 1026.4 hPa | - | - | - | - |
| 1777695406 | 7.78° C | 100% | 1026.5 hPa | - | - | - | - |
| 1777695106 | 6.67° C | 100% | 1026.7 hPa | - | - | - | - |
| 1777694805 | 6.11° C | 100% | 1026.7 hPa | - | - | - | - |
| 1777694505 | 5° C | 100% | 1026.7 hPa | - | - | - | - |
| 1777694204 | 4.44° C | 100% | 1026.7 hPa | - | - | - | - |
| 1777693904 | 4.44° C | 100% | 1026.7 hPa | - | - | - | - |
| 1777693603 | 4.44° C | 100% | 1026.7 hPa | - | - | - | - |
| 1777693303 | 4.44° C | 100% | 1026.7 hPa | - | - | - | - |
| 1777693002 | 4.44° C | 100% | 1026.7 hPa | - | - | - | - |
| 1777692701 | 4.44° C | 100% | 1026.7 hPa | - | - | - | - |
| 1777692401 | 4.44° C | 100% | 1026.6 hPa | - | - | - | - |
| 1777692100 | 4.44° C | 100% | 1026.7 hPa | - | - | - | - |
| 1777691800 | 4.44° C | 100% | 1026.7 hPa | - | - | - | - |
* Rain since midnight (hover to see other rain measurements)
** Current wind speed in m/s (hover to see current wind gust speed)